This is the latest recevied weather packets stored in our database for station/object N3WMC. If no packets are shown the sender has not sent any weather packets the latest 10 day(s).
| Time | Temp. | Humidity | Pressure | Rain* | Wind** | Luminosity | Snow |
|---|---|---|---|---|---|---|---|
| 1787494663 | 20° C | 83% | 1014 hPa | 0 mm | - | 524 W/m² | - |
| 1787494358 | 19.44° C | 84% | 1014.1 hPa | 0 mm | - | 485 W/m² | - |
| 1787494054 | 20° C | 84% | 1014.1 hPa | 0 mm | - | 235 W/m² | - |
| 1787493750 | 20° C | 84% | 1014.1 hPa | 0 mm | - | 100 W/m² | - |
| 1787493449 | 19.44° C | 86% | 1014.1 hPa | 0 mm | - | 125 W/m² | - |
| 1787493146 | 19.44° C | 86% | 1014 hPa | 0 mm | - | 90 W/m² | - |
| 1787492841 | 20° C | 83% | 1013.9 hPa | 0 mm | - | 88 W/m² | - |
| 1787492537 | 19.44° C | 86% | 1013.8 hPa | 0 mm | - | 150 W/m² | - |
| 1787492232 | 19.44° C | 88% | 1013.6 hPa | 0 mm | - | 194 W/m² | - |
| 1787491928 | 19.44° C | 89% | 1013.9 hPa | 0 mm | - | 452 W/m² | - |
| 1787491623 | 18.89° C | 90% | 1013.8 hPa | 0 mm | - | 208 W/m² | - |
| 1787491318 | 19.44° C | 90% | 1013.9 hPa | 0 mm | - | 213 W/m² | - |
| 1787491013 | 18.89° C | 91% | 1013.7 hPa | 0 mm | - | 361 W/m² | - |
| 1787490704 | 18.33° C | 93% | 1013.7 hPa | 0 mm | - | 341 W/m² | - |
| 1787490403 | 18.33° C | 93% | 1013.8 hPa | 0 mm | - | 157 W/m² | - |
| 1787490102 | 17.78° C | 94% | 1013.5 hPa | 0 mm | - | 356 W/m² | - |
| 1787489796 | 17.78° C | 94% | 1013.5 hPa | 0 mm | - | 104 W/m² | - |
| 1787489492 | 17.78° C | 94% | 1013.5 hPa | 0 mm | - | 56 W/m² | - |
| 1787489187 | 17.78° C | 94% | 1013.7 hPa | 0 mm | - | 68 W/m² | - |
| 1787488883 | 17.78° C | 94% | 1013.5 hPa | 0 mm | - | 35 W/m² | - |
| 1787488579 | 18.33° C | 94% | 1013.3 hPa | 0 mm | - | 54 W/m² | - |
| 1787488275 | 18.33° C | 94% | 1013.4 hPa | 0 mm | - | 125 W/m² | - |
| 1787487973 | 18.33° C | 94% | 1013.3 hPa | 0 mm | - | 111 W/m² | - |
| 1787487668 | 17.78° C | 94% | 1013.2 hPa | 0 mm | - | 64 W/m² | - |
| 1787487359 | 18.33° C | 95% | 1013.2 hPa | 0 mm | - | 90 W/m² | - |
* Rain latest hour (hover to see other rain measurements)
** Current wind speed in m/s (hover to see current wind gust speed)